TimeMDT,TemperatureF,Dew PointF,Humidity,Sea Level PressureIn,VisibilityMPH,Wind Direction,Wind SpeedMPH,Gust SpeedMPH,PrecipitationIn,Events,Conditions,WindDirDegrees,DateUTC
12:31 AM,75.2,53.6,47,30.39,10.0,North,9.2,-,0.00,Rain-Thunderstorm,Light Rain,350,2013-06-28 06:31:00
12:54 AM,70.0,55.0,59,30.09,8.0,NW,18.4,31.1,0.01,Rain-Thunderstorm,Light Rain,310,2013-06-28 06:54:00
1:22 AM,66.2,57.2,73,30.43,10.0,NW,11.5,-,0.00,,Partly Cloudy,310,2013-06-28 07:22:00
1:31 AM,68.0,57.2,68,30.43,10.0,WNW,18.4,24.2,0.00,Thunderstorm,Scattered Clouds,290,2013-06-28 07:31:00
1:54 AM,68.0,57.0,68,30.11,10.0,NW,9.2,-,0.00,,Partly Cloudy,320,2013-06-28 07:54:00
2:54 AM,68.0,55.0,63,30.09,10.0,WSW,16.1,-,0.00,,Mostly Cloudy,250,2013-06-28 08:54:00
3:54 AM,66.9,54.0,63,30.04,10.0,WSW,25.3,29.9,N/A,,Clear,240,2013-06-28 09:54:00
4:54 AM,69.1,51.1,53,30.01,10.0,WSW,16.1,19.6,N/A,,Clear,250,2013-06-28 10:54:00
5:54 AM,69.1,51.1,53,30.02,10.0,WSW,17.3,-,N/A,,Clear,250,2013-06-28 11:54:00
6:54 AM,69.1,51.1,53,30.04,10.0,West,10.4,-,N/A,,Clear,260,2013-06-28 12:54:00
7:54 AM,73.9,48.9,41,30.05,10.0,South,4.6,-,N/A,,Clear,170,2013-06-28 13:54:00
8:54 AM,80.1,50.0,35,30.06,10.0,Calm,Calm,-,N/A,,Clear,0,2013-06-28 14:54:00
9:54 AM,82.9,46.9,28,30.05,10.0,South,3.5,-,N/A,,Clear,190,2013-06-28 15:54:00
10:54 AM,88.0,42.1,20,30.03,10.0,ESE,3.5,-,N/A,,Clear,120,2013-06-28 16:54:00
11:54 AM,90.0,42.1,19,29.99,10.0,Variable,4.6,-,N/A,,Clear,0,2013-06-28 17:54:00
12:54 PM,93.9,39.9,15,29.98,10.0,ENE,8.1,-,N/A,,Clear,70,2013-06-28 18:54:00
1:54 PM,97.0,39.0,13,29.94,10.0,NE,11.5,17.3,N/A,,Clear,40,2013-06-28 19:54:00
2:54 PM,93.0,37.9,15,29.93,10.0,Calm,Calm,-,N/A,,Partly Cloudy,0,2013-06-28 20:54:00
3:54 PM,93.0,39.9,16,29.92,10.0,SSW,16.1,21.9,N/A,,Clear,210,2013-06-28 21:54:00
4:20 PM,91.4,37.4,15,30.21,10.0,WSW,13.8,-,N/A,,Partly Cloudy,240,2013-06-28 22:20:00
4:54 PM,91.0,36.0,14,29.92,10.0,WSW,19.6,-,N/A,,Clear,240,2013-06-28 22:54:00
5:54 PM,89.1,35.1,15,29.91,10.0,West,17.3,-,N/A,,Clear,260,2013-06-28 23:54:00
6:54 PM,86.0,37.0,18,29.92,10.0,WSW,20.7,-,N/A,,Clear,250,2013-06-29 00:54:00
7:54 PM,82.9,39.0,21,29.91,10.0,West,15.0,-,N/A,,Clear,260,2013-06-29 01:54:00
8:24 PM,80.6,39.2,23,30.21,10.0,North,10.4,-,N/A,Thunderstorm,Clear,350,2013-06-29 02:24:00
8:54 PM,82.0,39.0,22,29.94,10.0,Variable,4.6,23.0,N/A,Thunderstorm,Thunderstorm,0,2013-06-29 02:54:00
9:13 PM,82.4,39.2,21,30.23,10.0,SSE,15.0,29.9,N/A,,Mostly Cloudy,150,2013-06-29 03:13:00
9:54 PM,81.0,39.9,23,29.95,10.0,WSW,5.8,-,N/A,,Clear,240,2013-06-29 03:54:00
10:54 PM,79.0,41.0,26,29.95,10.0,WNW,16.1,-,N/A,,Clear,290,2013-06-29 04:54:00
11:54 PM,77.0,42.1,29,29.98,10.0,WNW,10.4,-,N/A,,Clear,300,2013-06-29 05:54:00